Temp
61 61 61 61 60 60 60 60 59 59 59 59 59 59 59 59 59 59 59 58 59 59 59 59 59 59 55 52 55 69 68 68 66 67 65 64 59 58 53 57 58 55 57 61 63 63 62
60 60 60 60 59 59 60 59 59 58 58 58 58 58 58 58 59 58 58 58 58 58 58 59 58 58 50 43 67 70 70 66 67 63 63 64 62 62 58 57 54 59 59 59 61 61 62
60 60 59 59 59 59 59 58 58 58 58 58 58 57 57 57 57 57 57 57 57 57 58 58 58 57 49 49 65 64 67 66 67 67 64 68 67 60 58 55 62 60 52 56 55 57 57
60 60 60 59 59 59 58 58 58 58 58 58 58 57 57 56 56 56 56 57 57 57 57 57 57 53 45 64 61 62 62 62 67 69 69 70 68 61 57 59 56 52 50 41 55 58 61
60 59 59 59 58 58 58 58 58 58 58 58 57 57 56 56 56 56 56 57 57 57 57 57 50 48 43 64 61 67 65 61 66 68 69 74 66 57 55 46 41 44 37 41 47 59 56
59 60 59 59 58 59 58 58 58 58 57 57 57 57 56 56 55 55 55 55 55 54 54 57 54 45 51 58 66 69 66 66 63 62 61 60 53 48 46 42 32 37 38 37 41 50 55
60 60 59 59 58 58 58 59 58 57 57 57 56 56 56 55 55 54 51 47 43 43 48 44 46 49 58 65 69 66 69 64 62 57 47 51 42 37 45 45 48 46 44 43 48 54 52
58 58 59 59 59 58 58 58 57 57 57 56 56 55 55 55 55 54 53 45 50 54 43 49 53 52 59 61 53 60 66 56 53 46 49 45 39 47 51 50 48 47 44 44 50 55 53
58 57 58 59 59 58 58 58 57 57 56 56 55 55 55 55 55 52 50 49 56 55 39 48 52 50 53 57 50 54 60 56 50 47 47 42 48 55 51 49 47 47 45 45 46 51 48
57 57 57 57 58 57 57 57 57 56 56 55 55 54 54 54 49 48 47 54 55 55 35 41 49 55 57 59 50 61 63 57 51 47 48 46 54 51 50 48 50 42 51 51 47 42 34
57 56 56 56 57 56 56 56 56 56 55 55 54 54 53 54 48 48 52 53 52 50 18 51 55 66 60 53 57 59 63 55 47 48 47 43 46 46 45 48 52 46 53 49 46 39 35
55 55 56 56 55 55 55 55 55 55 55 55 54 54 53 49 48 49 53 53 50 27 21 46 56 53 50 53 55 59 57 59 57 49 48 48 55 51 50 54 53 55 50 45 42 37 27
55 55 55 55 55 55 55 55 54 54 54 54 54 54 51 51 46 52 52 49 32 22 48 45 48 53 50 48 51 52 51 47 43 36 37 45 47 51 55 47 50 47 38 28 25 25 26
55 54 54 54 54 54 54 54 53 53 54 54 53 52 50 50 50 51 49 39 24 37 39 53 52 51 46 50 49 50 46 41 46 45 38 34 31 46 51 46 43 42 41 28 22 23 26
54 54 54 54 53 53 53 54 53 53 53 53 52 44 44 48 50 50 43 30 29 37 47 45 48 42 43 48 49 48 46 45 48 47 38 34 36 49 51 51 49 41 34 42 34 31 26
53 53 53 53 53 53 53 53 53 53 53 52 43 39 41 51 52 46 37 34 37 46 49 48 39 45 39 43 43 43 44 48 46 52 53 44 35 44 47 49 47 45 46 31 30 23 21
53 52 52 52 52 52 52 52 52 52 53 52 44 35 41 48 49 41 32 33 41 49 50 45 42 41 43 41 44 41 43 46 47 47 48 44 40 37 43 39 38 39 36 37 36 32 23
51 52 52 52 52 52 52 52 52 52 52 48 41 32 41 48 36 36 34 38 46 45 49 46 46 44 41 43 41 41 40 45 46 46 43 43 36 29 35 45 46 42 39 40 28 26 28
51 51 51 51 52 52 52 52 52 52 52 41 34 33 43 43 31 32 38 39 43 43 45 45 44 46 46 42 35 41 42 47 46 45 42 43 33 26 30 36 41 37 42 43 40 36 29
50 50 51 51 51 51 52 52 51 52 52 43 35 30 34 37 39 36 35 36 37 45 44 46 44 45 42 39 42 40 39 44 46 45 48 45 35 32 29 32 36 32 38 42 38 28 28
49 49 50 50 51 51 51 51 51 51 51 42 37 33 34 28 32 35 38 37 36 37 45 45 40 41 39 34 37 36 39 40 44 47 42 39 30 33 37 41 41 34 35 38 35 36 31
49 49 49 50 50 50 50 50 50 50 50 40 33 34 37 32 37 34 35 35 37 38 41 40 38 41 40 37 39 36 39 37 38 43 39 40 30 31 30 39 39 35 37 38 38 39 39
49 49 49 49 49 50 50 50 50 50 49 39 39 43 38 35 34 32 34 36 38 42 43 45 43 39 38 41 43 42 44 44 45 39 35 34 31 27 23 34 33 27 32 37 39 36 35
48 49 49 49 49 50 50 49 50 50 49 42 42 41 34 30 33 33 37 38 37 39 37 43 46 41 44 48 48 45 43 46 44 42 42 33 31 29 26 28 18 30 38 38 32 31 33
48 48 49 49 49 49 49 49 49 49 50 41 43 40 36 30 34 35 36 36 38 40 40 43 45 47 47 43 32 29 31 35 38 41 39 39 31 24 21 21 27 31 30 25 26 26 30
48 48 48 48 48 48 49 49 49 49 50 44 43 44 39 34 32 40 37 38 34 33 37 37 46 48 45 34 30 25 23 29 27 35 42 38 36 25 21 18 8 20 32 37 33 18 30
48 48 48 49 48 48 48 48 48 49 49 45 42 44 40 34 38 39 36 35 40 36 34 35 38 39 43 29 28 26 27 37 26 27 29 27 26 24 20 17 23 30 31 37 20 19 29
47 48 48 48 48 48 48 48 48 49 49 44 41 45 41 35 37 41 43 37 40 37 32 36 35 35 32 30 29 28 26 31 28 30 29 28 25 19 18 13 16 30 31 26 26 27 28
47 47 46 45 46 47 47 47 48 49 49 48 40 45 46 38 37 44 45 49 48 44 40 37 36 36 36 32 32 31 27 24 28 23 34 22 26 21 24 20 26 29 25 32 34 31 29
MSLP
1019.38 1019.45 1019.57 1019.90 1020.01 1020.28 1020.20 1020.06 1020.10 1020.22 1020.37 1020.28 1020.28 1020.36 1020.19 1020.09 1019.79 1019.74 1019.68 1019.59 1019.46 1019.54 1019.69 1019.55 1019.76 1019.92 1019.20 1018.75 1015.74 1013.42 1013.99 1013.94 1014.16 1014.15 1014.10 1013.84 1013.66 1013.53 1013.78 1013.67 1013.29 1012.82 1012.43 1012.05 1011.66 1011.36 1011.04
1019.26 1019.41 1019.39 1019.61 1019.85 1020.14 1020.21 1020.27 1020.23 1020.24 1020.34 1020.27 1020.28 1020.31 1020.14 1019.94 1019.86 1019.62 1019.51 1019.56 1019.30 1019.33 1019.51 1019.46 1019.93 1020.02 1019.65 1018.38 1014.21 1013.54 1013.77 1014.01 1014.01 1014.07 1013.93 1013.72 1013.64 1013.49 1013.56 1013.47 1013.49 1012.74 1012.49 1012.09 1011.62 1011.36 1010.74
1019.07 1019.19 1019.19 1019.44 1019.72 1019.71 1020.02 1020.11 1020.10 1020.14 1020.28 1020.32 1020.12 1020.23 1020.14 1020.08 1019.78 1019.55 1019.41 1019.44 1019.27 1019.12 1019.27 1019.62 1020.03 1020.00 1019.34 1016.46 1014.01 1013.65 1014.07 1014.19 1013.95 1014.01 1013.75 1013.43 1013.46 1013.65 1013.67 1013.89 1013.23 1013.15 1012.95 1012.21 1011.86 1011.29 1010.69
1018.89 1019.02 1018.95 1019.22 1019.27 1019.37 1019.68 1019.81 1019.83 1019.97 1020.09 1020.09 1020.15 1020.10 1019.91 1020.20 1019.84 1019.42 1019.18 1019.29 1018.97 1019.14 1019.29 1019.59 1019.96 1019.95 1018.14 1014.44 1013.95 1013.76 1013.68 1013.75 1013.67 1013.44 1013.44 1013.26 1013.25 1013.60 1013.79 1014.07 1013.84 1013.86 1013.33 1012.58 1011.64 1011.24 1010.41
1018.60 1018.71 1018.79 1019.05 1019.06 1019.00 1019.32 1019.51 1019.60 1019.68 1019.74 1019.95 1020.07 1019.94 1019.76 1020.03 1020.11 1019.42 1019.05 1018.84 1018.68 1019.12 1019.39 1019.60 1019.90 1020.12 1017.04 1014.08 1013.49 1012.15 1012.77 1012.96 1012.77 1012.70 1012.66 1012.89 1013.23 1013.65 1014.06 1014.74 1014.92 1014.75 1013.90 1013.01 1012.40 1011.36 1011.09
1018.08 1018.32 1018.60 1018.67 1018.89 1018.57 1019.00 1019.14 1019.20 1019.49 1019.60 1019.83 1019.91 1019.79 1019.91 1019.94 1019.99 1019.50 1019.31 1018.89 1019.36 1019.49 1019.84 1019.67 1019.56 1019.81 1015.94 1013.28 1012.33 1011.88 1011.84 1012.36 1012.44 1012.59 1012.83 1013.00 1013.71 1014.01 1014.57 1015.20 1015.06 1014.81 1014.13 1013.10 1012.91 1012.08 1011.19
1017.60 1017.83 1018.07 1018.33 1018.51 1018.50 1018.75 1018.89 1019.00 1019.17 1019.41 1019.55 1019.87 1019.91 1019.68 1019.88 1019.63 1019.77 1019.81 1019.84 1020.09 1019.61 1019.35 1017.84 1017.08 1015.84 1014.02 1012.56 1011.79 1011.62 1011.55 1012.12 1012.38 1012.79 1013.35 1013.51 1014.26 1014.45 1014.14 1014.26 1014.21 1014.26 1013.91 1012.92 1012.33 1011.92 1011.10
1017.18 1017.43 1017.48 1017.64 1018.12 1018.44 1018.40 1018.66 1018.85 1019.10 1019.18 1019.34 1019.55 1019.70 1019.79 1019.62 1019.63 1019.62 1019.89 1019.31 1018.38 1018.42 1017.49 1016.52 1015.17 1014.66 1013.32 1013.40 1012.87 1011.68 1011.62 1012.42 1012.40 1012.92 1013.58 1014.28 1014.03 1013.86 1013.88 1014.03 1013.86 1013.84 1013.55 1012.61 1010.97 1011.29 1011.14
1016.64 1016.99 1017.18 1017.37 1017.59 1018.02 1018.08 1018.47 1018.55 1018.87 1019.11 1019.15 1019.25 1019.50 1019.64 1019.83 1019.42 1019.88 1019.46 1018.67 1017.76 1017.92 1017.40 1014.83 1013.56 1013.41 1012.59 1012.65 1012.40 1010.89 1011.38 1011.84 1012.48 1012.86 1013.21 1013.70 1013.37 1013.06 1013.56 1013.59 1013.39 1012.88 1012.90 1012.24 1011.63 1010.97 1010.91
1016.04 1016.47 1016.76 1017.11 1017.29 1017.44 1017.81 1018.03 1018.31 1018.60 1018.76 1018.97 1019.06 1019.28 1019.40 1019.57 1019.97 1019.46 1019.06 1017.91 1018.01 1018.52 1017.49 1014.02 1012.03 1010.77 1011.09 1011.17 1011.25 1009.89 1010.29 1011.47 1012.14 1012.31 1013.10 1013.17 1012.85 1012.52 1012.49 1012.62 1012.61 1011.67 1012.39 1011.92 1011.87 1011.92 1011.89
1015.41 1015.83 1016.21 1016.61 1016.87 1017.13 1017.39 1017.78 1017.91 1018.19 1018.54 1018.64 1018.86 1018.99 1019.28 1019.35 1019.39 1019.02 1017.98 1017.58 1018.28 1018.61 1016.55 1011.95 1010.15 1009.13 1009.86 1010.51 1009.55 1009.20 1009.45 1011.07 1011.51 1011.69 1012.49 1012.26 1012.01 1012.11 1012.02 1011.38 1012.22 1011.00 1011.89 1012.02 1012.12 1012.48 1012.85
1014.79 1015.25 1015.57 1015.91 1016.35 1016.68 1017.07 1017.28 1017.53 1017.83 1018.07 1018.34 1018.66 1018.70 1018.97 1019.02 1019.24 1018.30 1017.91 1018.02 1018.51 1018.59 1014.62 1011.01 1009.46 1009.42 1010.14 1010.01 1009.43 1009.07 1009.67 1010.41 1010.79 1011.88 1011.99 1011.77 1011.40 1011.43 1010.77 1010.79 1011.33 1011.23 1011.70 1012.27 1012.88 1013.29 1013.35
1014.24 1014.65 1015.05 1015.35 1015.77 1016.10 1016.49 1016.68 1017.05 1017.40 1017.65 1017.97 1018.11 1018.43 1018.77 1018.53 1018.35 1017.49 1018.20 1018.62 1018.77 1016.94 1012.87 1010.69 1009.46 1009.28 1009.42 1009.65 1009.65 1009.44 1009.72 1010.39 1010.90 1011.84 1011.86 1011.10 1010.92 1010.45 1010.14 1010.35 1010.76 1011.23 1012.11 1013.55 1014.11 1014.24 1013.58
1013.50 1014.03 1014.51 1014.92 1015.26 1015.50 1015.78 1016.18 1016.54 1016.95 1017.14 1017.43 1017.78 1017.95 1018.16 1018.39 1017.74 1017.81 1018.28 1018.70 1017.54 1013.86 1012.48 1010.08 1009.53 1009.66 1009.86 1009.66 1009.62 1009.58 1009.88 1010.36 1010.57 1011.02 1011.55 1011.55 1010.75 1010.06 1009.81 1009.84 1010.30 1011.01 1011.97 1013.70 1014.41 1014.52 1014.07
1012.81 1013.21 1013.64 1014.21 1014.61 1014.94 1015.11 1015.59 1016.03 1016.36 1016.67 1017.07 1017.40 1017.67 1017.74 1016.97 1017.44 1017.75 1018.13 1017.51 1014.86 1013.07 1011.84 1010.93 1010.38 1010.07 1009.29 1009.01 1009.32 1009.36 1009.83 1009.85 1009.66 1010.24 1011.05 1010.94 1010.37 1009.62 1009.61 1009.73 1010.15 1011.13 1011.98 1012.78 1014.12 1014.64 1014.88
1012.12 1012.37 1012.86 1013.45 1013.86 1014.32 1014.70 1014.98 1015.39 1015.86 1016.30 1016.66 1017.28 1017.60 1016.86 1015.65 1016.61 1017.43 1017.50 1015.75 1013.68 1012.46 1011.53 1011.11 1010.82 1010.15 1009.63 1009.38 1009.41 1009.39 1009.47 1009.40 1009.42 1009.27 1009.39 1009.98 1010.23 1010.30 1010.12 1010.00 1010.18 1010.59 1011.67 1013.01 1014.51 1015.07 1014.74
1011.26 1011.67 1012.07 1012.72 1013.14 1013.73 1014.02 1014.50 1014.86 1015.40 1015.89 1016.25 1016.81 1017.40 1015.98 1015.91 1016.48 1016.95 1015.91 1014.33 1013.08 1012.53 1011.99 1011.54 1010.85 1010.73 1010.26 1009.99 1009.74 1009.73 1009.31 1009.43 1009.37 1009.47 1009.68 1010.43 1010.72 1011.20 1010.98 1010.67 1010.54 1011.09 1011.50 1012.29 1013.39 1014.47 1014.59
1010.56 1011.03 1011.45 1011.96 1012.40 1012.90 1013.35 1013.87 1014.36 1014.83 1015.34 1016.09 1016.56 1016.92 1016.15 1015.82 1016.04 1015.82 1015.20 1013.18 1012.61 1012.16 1012.08 1011.64 1011.26 1010.80 1010.85 1010.82 1010.18 1009.99 1009.77 1009.53 1009.48 1009.43 1010.07 1010.50 1011.57 1011.50 1011.31 1010.86 1010.78 1010.95 1011.35 1012.02 1013.21 1014.08 1014.02
1009.86 1010.21 1010.78 1011.25 1011.70 1012.19 1012.84 1013.26 1013.81 1014.30 1014.61 1015.48 1016.11 1016.13 1015.88 1015.89 1015.04 1014.82 1013.94 1012.88 1012.70 1011.99 1011.63 1011.38 1010.93 1010.40 1010.38 1010.57 1010.90 1009.93 1009.70 1009.69 1009.82 1009.94 1010.09 1010.77 1011.92 1012.24 1012.06 1011.95 1011.27 1011.23 1011.40 1011.74 1012.21 1013.11 1013.55
1009.12 1009.50 1009.93 1010.48 1010.96 1011.45 1012.06 1012.65 1013.19 1013.62 1013.95 1014.85 1015.77 1015.91 1015.65 1015.41 1014.56 1014.02 1013.46 1012.52 1012.39 1011.54 1011.69 1011.19 1010.73 1010.67 1010.60 1010.52 1010.44 1010.21 1010.25 1010.25 1010.38 1010.49 1010.36 1010.55 1011.63 1012.09 1011.83 1011.41 1011.31 1011.71 1011.85 1011.99 1012.48 1013.06 1013.38
1008.32 1008.78 1009.19 1009.65 1010.18 1010.63 1011.24 1011.96 1012.42 1012.94 1013.25 1014.26 1014.69 1014.27 1013.75 1013.96 1013.85 1013.19 1013.11 1012.20 1011.78 1011.17 1010.87 1010.80 1010.51 1010.53 1010.96 1010.65 1010.42 1010.22 1010.34 1010.61 1010.61 1010.78 1011.04 1011.29 1012.15 1012.44 1012.13 1011.77 1011.61 1012.17 1012.68 1012.42 1012.37 1012.47 1012.75
1007.53 1007.91 1008.38 1008.92 1009.35 1009.89 1010.48 1011.03 1011.60 1012.08 1012.74 1013.66 1013.69 1013.59 1012.99 1012.45 1012.13 1012.74 1012.45 1011.66 1010.92 1010.10 1010.76 1010.12 1010.18 1010.08 1010.31 1010.38 1010.32 1010.44 1010.24 1010.41 1010.36 1011.22 1011.63 1011.91 1012.66 1013.05 1012.83 1012.46 1012.33 1012.56 1012.61 1012.28 1012.28 1012.47 1012.79
1006.64 1007.12 1007.60 1008.02 1008.46 1008.96 1009.45 1010.08 1010.62 1011.22 1012.03 1012.29 1012.59 1012.45 1012.22 1011.61 1011.36 1011.70 1010.72 1009.92 1009.79 1010.56 1010.15 1009.45 1009.63 1010.05 1009.98 1009.55 1010.02 1010.25 1010.53 1010.61 1010.32 1010.78 1011.66 1012.48 1013.06 1013.63 1013.58 1013.21 1013.19 1013.09 1012.68 1012.44 1012.52 1013.14 1013.63
1005.72 1006.15 1006.60 1007.02 1007.45 1007.92 1008.45 1009.02 1009.62 1010.25 1010.86 1011.38 1011.31 1011.88 1011.88 1011.04 1010.63 1009.93 1009.87 1010.08 1009.96 1009.86 1009.35 1008.96 1009.04 1009.36 1009.43 1009.66 1010.25 1010.68 1011.02 1010.59 1010.58 1011.13 1011.25 1012.30 1013.29 1014.15 1014.59 1014.45 1014.37 1013.64 1013.49 1013.40 1013.76 1014.83 1015.06
1004.75 1005.16 1005.54 1005.97 1006.41 1006.90 1007.47 1008.09 1008.66 1009.34 1009.94 1010.81 1010.86 1011.21 1010.81 1010.40 1010.05 1009.65 1009.56 1009.57 1009.61 1009.46 1009.28 1008.91 1008.61 1008.68 1009.46 1010.42 1011.77 1011.77 1012.12 1011.53 1010.89 1010.82 1011.24 1011.78 1013.35 1014.51 1015.26 1015.51 1015.16 1014.77 1014.76 1015.01 1015.14 1016.24 1016.64
1003.66 1004.09 1004.52 1004.97 1005.40 1005.98 1006.53 1007.11 1007.72 1008.33 1008.90 1009.82 1010.15 1010.46 1010.12 1009.89 1008.98 1008.92 1008.77 1008.73 1008.83 1009.02 1009.24 1008.87 1008.63 1008.62 1009.50 1010.94 1011.51 1011.89 1011.80 1011.07 1011.15 1011.35 1011.45 1012.36 1013.09 1014.60 1015.84 1016.38 1016.19 1015.82 1015.78 1015.78 1016.18 1017.09 1017.39
1002.45 1002.97 1003.42 1003.86 1004.39 1004.98 1005.57 1006.18 1006.84 1007.43 1008.01 1008.78 1009.12 1009.74 1009.93 1009.29 1008.51 1008.21 1007.60 1007.59 1008.03 1008.52 1008.53 1008.95 1008.81 1009.39 1009.54 1010.39 1011.42 1011.51 1011.05 1010.52 1011.10 1011.60 1012.22 1013.17 1014.09 1015.10 1016.36 1016.86 1016.51 1016.25 1016.46 1016.46 1017.48 1018.14 1017.80
1001.18 1001.65 1002.21 1002.78 1003.36 1003.86 1004.51 1005.16 1005.84 1006.45 1007.09 1007.97 1008.21 1008.78 1009.21 1008.89 1008.49 1007.92 1007.35 1006.74 1006.98 1007.75 1007.91 1008.35 1008.61 1009.19 1010.20 1010.54 1010.99 1010.89 1010.85 1010.83 1011.42 1011.88 1012.15 1013.01 1014.37 1015.63 1016.53 1017.45 1017.28 1016.67 1017.04 1017.48 1017.71 1018.04 1018.38
1000.07 1000.46 1001.04 1001.77 1002.28 1002.92 1003.43 1003.98 1004.65 1005.37 1006.20 1007.24 1007.85 1008.15 1008.61 1008.64 1008.24 1007.61 1006.47 1005.34 1005.07 1006.05 1006.48 1007.17 1007.28 1007.60 1008.43 1009.31 1010.06 1010.41 1011.07 1011.50 1011.67 1012.55 1012.53 1013.32 1013.70 1014.91 1016.21 1016.64 1016.84 1017.10 1017.37 1017.65 1017.85 1018.34 1018.97
Wind_Speed
5 4 3 3 5 2 2 3 4 3 2 3 4 4 5 7 8 7 8 9 9 7 7 6 6 10 7 4 12 4 5 4 2 2 3 2 2 3 2 4 8 5 5 6 7 9 8
4 3 3 6 5 2 2 2 2 3 4 4 4 5 6 7 7 7 8 9 8 8 8 6 3 7 1 7 6 6 5 4 4 3 3 3 4 4 5 4 2 6 9 10 6 10 8
4 4 4 3 3 2 1 3 1 1 3 4 5 6 7 8 7 8 8 8 8 6 7 3 2 2 4 20 5 7 12 7 6 5 5 4 3 2 5 8 4 6 11 11 4 6 7
6 4 4 3 4 2 1 2 3 3 3 3 5 7 8 9 9 8 8 8 8 6 7 3 2 2 10 7 6 12 7 6 12 12 13 8 4 2 3 4 8 7 6 2 5 2 9
8 8 7 4 3 3 4 4 4 5 4 3 5 6 8 8 10 9 7 8 4 5 5 3 1 3 12 10 7 10 11 9 3 6 7 9 2 4 3 2 5 3 8 5 5 8 5
11 11 10 8 6 5 4 5 5 4 1 3 5 6 7 8 9 1 5 6 7 5 2 2 2 3 8 5 2 4 6 8 5 1 1 6 2 2 2 4 6 7 6 4 3 6 10
15 14 13 10 8 5 5 6 2 3 2 3 5 6 7 8 1 6 6 3 2 1 4 11 8 6 5 4 2 3 2 5 3 3 5 3 4 7 15 10 8 6 9 15 11 7 10
13 10 15 14 11 8 6 6 2 1 1 1 4 6 8 7 5 10 2 3 2 2 10 20 22 20 22 7 7 10 2 4 6 7 2 3 8 12 9 10 12 13 14 15 16 12 13
12 9 10 14 13 11 8 7 5 5 4 2 3 4 6 8 7 4 6 6 6 9 5 8 10 8 10 15 11 16 6 6 4 5 10 11 9 7 12 13 15 17 12 13 16 10 2
14 12 12 14 14 12 9 8 8 6 6 5 4 4 4 6 1 3 5 8 7 3 5 8 6 7 8 7 7 9 10 8 6 12 9 9 16 18 16 12 11 17 6 11 8 7 9
16 13 12 12 12 11 10 9 9 8 7 8 6 5 3 2 3 3 6 6 2 2 5 2 5 7 12 8 2 2 7 5 9 11 4 8 2 5 11 18 8 20 11 8 3 5 3
14 14 14 14 13 11 11 11 10 9 9 9 8 6 2 3 2 7 4 5 3 8 10 5 7 9 7 5 3 4 6 4 6 8 9 13 10 6 16 16 13 17 4 7 5 1 4
15 15 14 14 13 13 14 13 11 9 10 11 10 7 3 1 4 7 3 3 3 5 3 5 6 8 10 8 4 3 6 8 7 4 6 10 14 7 9 13 3 3 5 3 4 1 7
16 16 16 15 12 13 13 14 11 10 9 10 9 7 6 6 8 3 3 3 6 7 9 3 3 6 6 5 7 9 3 5 7 6 4 5 7 5 3 6 7 6 8 6 4 4 5
17 17 16 14 13 13 15 14 12 10 9 8 3 2 3 6 10 6 7 7 10 7 3 3 5 4 7 8 10 11 13 13 10 13 9 5 7 2 3 3 6 2 3 7 2 2 2
20 18 17 15 14 13 13 13 12 10 9 8 2 1 4 4 13 9 9 17 11 5 6 4 4 5 4 1 4 4 7 1 1 9 8 7 9 2 1 2 1 6 7 4 2 4 6
18 18 18 16 16 14 13 12 11 11 11 10 2 2 3 2 9 9 12 12 16 13 6 5 7 8 8 5 4 5 5 1 2 0 8 1 5 3 2 4 8 2 2 2 6 5 3
18 18 17 17 16 15 14 13 12 12 11 7 3 4 2 5 10 5 16 17 14 9 13 17 11 17 14 8 5 5 8 6 3 2 3 2 2 4 6 4 5 3 5 6 5 5 4
21 20 20 19 18 17 16 14 14 14 15 4 4 4 0 3 9 9 9 17 12 14 8 11 10 9 6 10 4 6 2 2 6 4 8 8 2 1 5 4 3 3 4 3 2 4 13
22 21 20 20 19 18 17 16 16 16 17 5 3 4 3 3 3 11 14 16 17 8 20 16 8 6 7 5 7 4 3 1 1 2 4 7 5 7 9 3 4 2 5 2 5 3 3
22 23 21 20 20 19 19 19 18 17 18 5 5 5 5 7 15 16 13 7 20 17 16 11 9 19 7 5 5 6 5 3 2 2 2 5 5 4 4 2 3 3 9 14 8 10 11
22 22 21 21 21 21 21 20 19 18 20 6 5 4 4 3 15 20 15 19 24 15 16 16 17 8 10 15 8 6 6 5 6 4 4 1 3 2 2 3 4 8 11 10 8 6 5
23 22 22 22 22 23 23 21 20 20 20 7 4 3 3 4 8 13 21 28 20 14 13 23 17 8 12 16 4 4 3 5 4 8 8 6 5 3 3 1 1 5 6 11 7 4 0
23 23 23 23 23 24 24 22 22 22 21 6 3 3 6 6 8 14 13 21 25 20 18 7 17 15 4 8 9 7 4 5 11 10 6 6 6 3 2 1 5 1 5 6 12 6 6
22 23 23 23 24 23 23 23 22 23 23 8 6 5 5 5 5 9 14 14 15 18 23 20 11 8 8 8 3 4 1 2 1 5 6 6 5 3 4 3 1 1 4 2 3 2 3
24 24 24 23 22 22 21 23 22 22 23 10 9 5 5 3 11 6 9 13 10 10 12 3 1 10 9 4 3 5 6 6 5 3 5 6 4 5 3 3 6 6 1 4 3 4 4
24 24 24 23 23 22 22 22 21 21 23 10 4 11 5 4 3 4 7 9 7 3 4 3 7 8 3 2 3 4 4 5 7 8 6 4 2 5 3 2 4 3 1 2 4 7 2
26 25 25 24 23 22 23 23 22 21 23 13 3 9 10 3 2 5 5 5 6 7 5 5 5 1 2 5 4 4 3 3 4 2 6 6 5 3 3 2 8 1 1 6 2 1 1
22 24 25 27 25 25 25 25 25 26 25 18 4 9 8 4 3 3 10 9 17 11 7 2 3 4 5 4 2 3 1 2 4 3 2 0 6 6 4 5 3 3 3 3 1 3 3
Wind_Direction
158 157 159 164 135 94 27 78 74 50 41 50 25 355 353 349 349 334 324 315 290 261 249 276 316 346 346 323 253 295 218 167 241 268 255 265 307 173 240 285 316 250 254 277 295 292 270
185 178 150 149 139 84 28 40 76 66 80 46 32 11 6 360 343 327 321 315 301 262 231 249 337 336 273 274 266 285 299 162 230 201 253 199 251 313 271 267 295 306 308 299 314 316 284
187 151 131 138 144 156 56 342 293 48 13 4 9 355 350 343 338 327 319 312 301 249 210 227 321 309 247 246 252 303 316 289 279 262 267 251 282 47 2 321 305 303 307 307 275 261 273
218 225 198 202 216 201 299 307 280 283 312 340 351 347 350 335 325 320 321 296 274 195 190 192 4 328 255 256 278 270 239 252 250 256 234 253 262 264 175 276 337 320 296 308 208 252 265
223 228 221 227 251 265 247 274 280 264 263 343 347 340 343 333 323 323 293 277 224 164 148 170 83 220 262 301 269 260 209 232 215 238 214 239 250 218 301 335 1 293 272 248 311 240 288
232 232 231 227 233 237 244 255 258 262 94 8 341 331 333 332 329 6 82 84 98 111 232 217 271 296 268 244 223 243 170 197 207 213 174 198 120 189 49 140 224 228 249 255 196 284 293
228 225 227 228 222 218 257 263 14 135 109 2 331 327 332 329 114 145 99 90 22 332 234 204 189 239 276 242 16 263 198 153 188 136 188 219 164 202 220 211 235 270 281 282 272 255 285
223 240 234 220 218 221 229 269 259 210 184 341 330 327 326 331 307 196 283 247 240 308 283 229 246 234 254 343 290 277 119 172 163 198 207 298 242 228 217 232 243 249 259 276 284 285 271
225 226 236 229 218 216 218 237 244 218 208 252 298 307 322 317 302 182 230 243 307 21 279 273 215 229 234 199 230 251 166 166 196 218 215 212 243 214 216 234 251 253 261 277 285 326 318
224 217 221 223 220 217 228 231 233 225 222 229 249 280 310 318 142 208 239 236 281 5 304 274 217 232 172 181 228 222 197 162 200 226 235 244 232 246 264 259 253 275 263 288 314 4 301
222 213 220 232 232 226 223 225 223 222 225 225 224 248 276 248 322 187 245 211 111 61 356 170 189 152 152 173 235 18 147 124 213 217 160 213 222 240 261 260 270 278 289 246 229 266 0
214 217 225 224 218 222 225 218 222 217 222 228 218 232 219 260 179 247 323 102 62 50 253 301 154 169 148 231 273 153 137 155 203 222 235 246 246 225 245 258 237 255 214 16 335 194 247
226 223 222 218 224 227 223 214 205 210 232 229 213 222 190 229 212 238 158 115 86 188 303 229 196 164 188 180 230 230 181 175 184 156 251 276 256 242 229 252 195 127 81 308 312 226 233
231 234 238 233 230 234 228 222 202 208 230 229 222 228 229 206 237 216 117 144 196 214 230 300 46 338 215 196 227 217 219 225 226 198 195 217 309 212 214 184 196 186 163 165 248 225 259
235 228 221 218 224 232 227 211 204 206 218 212 243 251 219 205 208 174 180 199 213 190 224 253 330 278 290 217 205 202 206 214 217 180 191 209 244 100 92 162 138 199 157 171 8 280 307
236 222 216 217 217 224 225 211 201 200 206 168 137 259 234 191 176 174 197 220 235 203 316 6 235 228 252 175 335 190 201 239 279 213 220 225 261 317 52 105 138 160 167 96 76 251 244
230 223 218 219 214 217 210 206 200 190 192 148 158 306 272 243 151 192 203 228 239 247 279 249 269 255 279 308 238 253 229 129 151 152 96 67 192 240 153 197 181 143 189 132 150 160 228
227 228 224 219 219 211 210 204 198 195 188 145 185 218 275 192 186 184 213 216 217 242 222 243 278 274 259 276 264 245 224 229 195 88 155 135 186 191 203 211 167 166 202 172 146 223 241
225 220 226 223 219 213 212 204 197 198 176 151 198 212 126 237 201 213 229 238 242 254 230 231 242 217 233 250 267 231 172 235 200 175 177 167 223 103 333 357 340 208 209 211 143 140 238
231 225 222 224 221 219 220 213 209 202 196 139 133 221 215 201 262 225 222 231 227 221 235 252 269 295 273 277 220 241 147 182 208 182 158 98 153 189 230 196 138 175 326 245 202 167 210
231 229 226 225 225 222 221 218 211 207 196 135 187 224 220 181 217 218 218 228 232 237 229 193 238 237 239 249 223 218 138 148 44 200 64 116 200 211 244 195 173 158 244 262 273 234 222
232 230 229 228 227 225 223 221 215 206 195 199 196 195 225 246 214 206 206 230 231 245 228 221 236 237 221 229 202 218 146 173 178 187 170 162 200 153 285 276 268 243 248 257 257 265 251
232 229 228 227 227 227 224 219 213 207 193 200 192 233 213 211 192 191 210 226 232 235 238 231 238 218 222 228 178 163 227 269 162 159 171 160 141 107 264 225 2 258 222 238 250 63 152
232 230 229 229 226 224 222 218 213 211 202 205 178 169 208 251 201 204 209 220 230 235 228 235 217 215 203 96 65 37 1 287 210 214 167 148 133 104 221 73 238 129 29 31 104 57 32
231 231 233 229 231 226 221 218 216 212 212 209 210 205 195 247 208 218 216 221 228 236 240 237 217 199 148 89 109 80 341 258 92 182 171 138 128 160 154 190 25 262 343 73 120 195 1
231 230 228 229 229 226 220 217 217 214 214 206 212 199 224 216 233 206 202 219 221 219 241 251 109 142 120 132 117 159 185 181 167 192 158 112 114 124 120 175 219 233 101 97 108 285 152
232 230 231 230 228 226 221 216 214 217 211 189 193 196 256 233 252 215 197 202 151 161 187 168 161 167 75 138 156 184 201 166 160 165 165 126 70 161 138 197 273 141 258 328 110 237 86
233 230 228 227 226 221 220 218 220 222 209 189 167 197 199 230 263 239 245 171 144 178 164 185 105 190 138 176 162 203 150 187 99 160 165 154 149 186 89 112 257 119 145 198 172 24 121
224 228 226 228 230 224 228 220 217 208 199 176 199 181 191 231 273 278 269 212 187 179 151 220 166 157 168 132 192 102 109 82 143 185 131 94 171 175 176 207 170 72 121 78 131 137 123